| time (UTC) | temp C | wind direction | speed KPH | gust KPH | rain 1hr cm | rain 24hr cm | rain mn cm | humidity % | barometer mb |
| 20260504081522 | 6 | 264 | 0.0 | 1.6 | 0.00 | 0.00 | 0.00 | 65 | 987.2 |
| 20260504044546 | 10 | 332 | 17.7 | 30.6 | 0.00 | 0.00 | 0.00 | 51 | 985.9 |
| 20260504043100 | 10 | 347 | 16.1 | 40.2 | 0.00 | 0.00 | 0.00 | 48 | 985.8 |
| 20260504041539 | 10 | 13 | 19.3 | 37.0 | 0.00 | 0.00 | 0.00 | 45 | 985.5 |
| 20260504040036 | 10 | 347 | 19.3 | 37.0 | 0.00 | 0.00 | 0.00 | 43 | 985.2 |
| 20260504034545 | 10 | 26 | 17.7 | 37.0 | 0.00 | 0.00 | 0.00 | 43 | 984.8 |
| 20260504033035 | 11 | 33 | 27.4 | 45.1 | 0.00 | 0.00 | 0.00 | 41 | 984.3 |
| 20260504031535 | 11 | 35 | 27.4 | 41.8 | 0.00 | 0.00 | 0.00 | 41 | 983.7 |
| 20260504030036 | 12 | 19 | 27.4 | 33.8 | 0.00 | 0.00 | 0.00 | 40 | 983.1 |
| 20260504024530 | 12 | 23 | 22.5 | 29.0 | 0.00 | 0.00 | 0.00 | 40 | 982.9 |
| 20260504023028 | 12 | 53 | 20.9 | 33.8 | 0.00 | 0.00 | 0.00 | 40 | 982.6 |
| 20260504021535 | 12 | 345 | 25.7 | 41.8 | 0.00 | 0.00 | 0.00 | 38 | 982.5 |
| 20260504020035 | 13 | 30 | 27.4 | 41.8 | 0.00 | 0.00 | 0.00 | 38 | 982.2 |
| 20260504014526 | 13 | 29 | 38.6 | 46.7 | 0.00 | 0.00 | 0.00 | 36 | 981.8 |
| 20260504013033 | 15 | 46 | 32.2 | 48.3 | 0.00 | 0.00 | 0.00 | 37 | 981.4 |
| 20260504011525 | 15 | 23 | 38.6 | 49.9 | 0.00 | 0.00 | 0.00 | 36 | 981.0 |
| 20260504010024 | 16 | 18 | 29.0 | 43.5 | 0.00 | 0.00 | 0.00 | 36 | 980.8 |
| 20260504004537 | 16 | 15 | 30.6 | 45.1 | 0.00 | 0.00 | 0.00 | 35 | 980.5 |
| 20260504003023 | 17 | 343 | 25.7 | 41.8 | 0.00 | 0.00 | 0.00 | 36 | 980.6 |
| 20260504001531 | 17 | 330 | 20.9 | 38.6 | 0.00 | 0.00 | 0.00 | 36 | 980.5 |
| 20260504000021 | 17 | 347 | 24.1 | 46.7 | 0.00 | 0.00 | 0.00 | 35 | 980.3 |
| 20260503234523 | 17 | 349 | 30.6 | 51.5 | 0.00 | 0.00 | 0.00 | 35 | 980.3 |
| 20260503233019 | 16 | 340 | 33.8 | 45.1 | 0.00 | 0.00 | 0.00 | 35 | 980.2 |
| 20260503231521 | 17 | 345 | 25.7 | 43.5 | 0.00 | 0.00 | 0.00 | 34 | 980.3 |
| 20260503230022 | 17 | 352 | 27.4 | 46.7 | 0.00 | 0.00 | 0.00 | 33 | 980.3 |
| 20260503224517 | 17 | 37 | 33.8 | 49.9 | 0.00 | 0.00 | 0.00 | 33 | 980.3 |
| 20260503223016 | 18 | 43 | 30.6 | 46.7 | 0.00 | 0.00 | 0.00 | 31 | 980.1 |
| 20260503221516 | 19 | 53 | 14.5 | 32.2 | 0.00 | 0.00 | 0.00 | 27 | 979.9 |
| 20260503220026 | 19 | 47 | 8.0 | 19.3 | 0.00 | 0.00 | 0.00 | 28 | 980.1 |
| 20260503214522 | 18 | 297 | 12.9 | 30.6 | 0.00 | 0.00 | 0.00 | 28 | 980.2 |
| 20260503213018 | 18 | 56 | 19.3 | 30.6 | 0.00 | 0.00 | 0.00 | 28 | 980.2 |
| 20260503211513 | 19 | 56 | 12.9 | 29.0 | 0.00 | 0.00 | 0.00 | 28 | 980.4 |
| 20260503210011 | 18 | 43 | 16.1 | 22.5 | 0.00 | 0.00 | 0.00 | 28 | 980.5 |
| 20260503204506 | 18 | 46 | 19.3 | 27.4 | 0.00 | 0.00 | 0.00 | 29 | 980.5 |
| 20260503203006 | 18 | 61 | 20.9 | 35.4 | 0.00 | 0.00 | 0.00 | 28 | 980.8 |
| 20260503201502 | 18 | 52 | 27.4 | 29.0 | 0.00 | 0.00 | 0.00 | 29 | 981.0 |
| 20260503200001 | 19 | 340 | 8.0 | 19.3 | 0.00 | 0.00 | 0.00 | 23 | 981.1 |
| 20260503194624 | 18 | 345 | 9.7 | 19.3 | 0.00 | 0.00 | 0.00 | 25 | 981.2 |
| 20260503193055 | 18 | 304 | 17.7 | 25.7 | 0.00 | 0.00 | 0.00 | 26 | 981.4 |
| 20260503191600 | 18 | 333 | 3.2 | 17.7 | 0.00 | 0.00 | 0.00 | 26 | 981.7 |
| 20260503190057 | 18 | 335 | 6.4 | 22.5 | 0.00 | 0.00 | 0.00 | 27 | 982.1 |
| 20260503184548 | 17 | 336 | 9.7 | 16.1 | 0.00 | 0.00 | 0.00 | 27 | 982.3 |
| 20260503183054 | 17 | 334 | 9.7 | 27.4 | 0.00 | 0.00 | 0.00 | 29 | 982.5 |
| 20260503181557 | 17 | 360 | 11.3 | 25.7 | 0.00 | 0.00 | 0.00 | 30 | 982.6 |
| 20260503180049 | 17 | 322 | 14.5 | 35.4 | 0.00 | 0.00 | 0.00 | 25 | 982.9 |
| 20260503174541 | 17 | 315 | 14.5 | 25.7 | 0.00 | 0.00 | 0.00 | 26 | 983.1 |
| 20260503173040 | 17 | 302 | 11.3 | 35.4 | 0.00 | 0.00 | 0.00 | 30 | 983.3 |
| 20260503171534 | 16 | 318 | 12.9 | 32.2 | 0.00 | 0.00 | 0.00 | 29 | 983.5 |
| 20260503120105 | 11 | 281 | 9.7 | 24.1 | 0.00 | 0.00 | 0.00 | 34 | 984.8 |